Weather History for New Castle, PA

Change the Weather History Date:

Sunday, July 14, 2013

  Actual Average Record
Temperature  
Mean Temperature 76 °F -  
Max Temperature 88 °F 85 °F 100 °F (1936)
Min Temperature 65 °F 58 °F 43 °F (1926)
Cooling Degree Days 12    
Growing Degree Days 26 (Base 50)    
Moisture  
Dew Point 68 °F    
Average Humidity 75    
Maximum Humidity 97    
Minimum Humidity 53    
Precipitation  
Precipitation 0.00 in - - ()
Sea Level Pressure  
Sea Level Pressure 30.31 in    
Wind  
Wind Speed 2 mph (SE)    
Max Wind Speed 7 mph    
Max Gust Speed -    
Visibility 10 miles    
Events      
Averages and records for this station are not official NWS values.
T = Trace of Precipitation, MM = Missing Value Source: NWS Daily Summary

Daily Weather History Graph

Daily Weather History Graph

Search for Another Location

Airport:

Trip Planner

Search our weather history database for the weather conditions in past years. The results will help you decide how hot, cold, wet, or windy it might be!

Date:

Astronomy

Jul. 14, 2013 Rise Set
Actual Time 6:01 AM EDT 8:52 PM EDT
Civil Twilight 5:29 AM EDT 9:25 PM EDT
Nautical Twilight 4:47 AM EDT 10:06 PM EDT
Astronomical Twilight 4:00 AM EDT 10:53 PM EDT
Moon 12:20 PM EDT (7/14) No Moon Set
Length of Visible Light 15h 56m
Length of Day
14h 51m
Waxing Crescent, 35% of the Moon is Illuminated
Jul 14
Waxing Crescent
Jul 15
First Quarter
Jul 22
Full
Jul 29
Last Quarter
Aug 6
New

Hourly Weather History & Observations

Time (EDT) Temp. Heat Index Dew Point Humidity Pressure Visibility Wind Dir Wind Speed Gust Speed Precip Events Conditions
12:56 AM 68.0 °F - 65.8 °F 93% 30.28 in 8.0 mi Calm Calm - N/A   Clear
1:56 AM 66.9 °F - 64.9 °F 93% 30.29 in 9.0 mi Calm Calm - N/A   Clear
2:56 AM 65.8 °F - 64.9 °F 97% 30.29 in 7.0 mi Calm Calm - N/A   Clear
3:56 AM 65.8 °F - 64.9 °F 97% 30.28 in 10.0 mi Calm Calm - N/A   Clear
4:56 AM 65.8 °F - 64.9 °F 97% 30.30 in 10.0 mi Calm Calm - N/A   Clear
5:56 AM 66.9 °F - 64.9 °F 93% 30.30 in 10.0 mi East 3.5 mph - N/A   Clear
6:56 AM 68.9 °F - 65.8 °F 90% 30.32 in 10.0 mi East 4.6 mph - N/A   Clear
7:56 AM 72.9 °F - 66.9 °F 82% 30.34 in 10.0 mi East 4.6 mph - N/A   Clear
8:56 AM 77.9 °F - 68.0 °F 71% 30.34 in 10.0 mi South 4.6 mph - N/A   Clear
9:56 AM 79.9 °F - 68.9 °F 69% 30.33 in 10.0 mi SSE 4.6 mph - N/A   Clear
10:56 AM 82.9 °F 86.3 °F 68.9 °F 62% 30.33 in 10.0 mi SE 6.9 mph - N/A   Clear
11:56 AM 84.9 °F 88.2 °F 68.0 °F 57% 30.33 in 10.0 mi Variable 6.9 mph - N/A   Clear
12:56 PM 86.0 °F 88.8 °F 66.9 °F 53% 30.32 in 10.0 mi Variable 3.5 mph - N/A   Scattered Clouds
1:56 PM 86.0 °F 89.4 °F 68.0 °F 55% 30.30 in 10.0 mi Variable 3.5 mph - N/A   Scattered Clouds
2:56 PM 86.0 °F 89.7 °F 68.9 °F 56% 30.32 in 10.0 mi Calm Calm - 0.00 in   Mostly Cloudy
3:56 PM 88.0 °F 92.1 °F 68.9 °F 53% 30.31 in 10.0 mi Variable 4.6 mph - 0.00 in   Scattered Clouds
4:56 PM 86.9 °F 90.3 °F 68.0 °F 53% 30.30 in 10.0 mi Variable 4.6 mph - N/A   Scattered Clouds
5:56 PM 86.9 °F 91.0 °F 68.9 °F 55% 30.30 in 10.0 mi Calm Calm - N/A   Scattered Clouds
6:56 PM 84.9 °F 89.4 °F 70.0 °F 61% 30.30 in 10.0 mi Calm Calm - N/A   Mostly Cloudy
7:56 PM 82.9 °F 88.0 °F 72.0 °F 69% 30.30 in 10.0 mi Calm Calm - N/A   Mostly Cloudy
8:56 PM 81.0 °F 84.1 °F 68.9 °F 67% 30.31 in 10.0 mi Calm Calm - N/A   Overcast
9:56 PM 77.9 °F - 72.0 °F 82% 30.32 in 10.0 mi Calm Calm - N/A   Overcast
10:56 PM 72.9 °F - 70.9 °F 93% 30.32 in 10.0 mi Calm Calm - N/A   Clear
11:56 PM 72.9 °F - 72.0 °F 97% 30.33 in 10.0 mi Calm Calm - N/A   Clear